Year,Month,Day,Hour,Minute,Value (Times are PST for temperature in C)
2019,04,10,14,00,10.30
2019,04,10,14,01,10.30
2019,04,10,14,02,10.30
2019,04,10,14,03,10.30
2019,04,10,14,04,10.30
2019,04,10,14,05,10.30
2019,04,10,14,06,10.40
2019,04,10,14,07,10.40
2019,04,10,14,08,10.50
2019,04,10,14,09,10.50
2019,04,10,14,10,10.60
2019,04,10,14,11,10.70
2019,04,10,14,12,10.80
2019,04,10,14,13,10.80
2019,04,10,14,14,10.80
2019,04,10,14,15,10.80
2019,04,10,14,16,10.80
2019,04,10,14,17,10.90
2019,04,10,14,18,11.00
2019,04,10,14,19,11.00
2019,04,10,14,20,11.10
2019,04,10,14,21,11.20
2019,04,10,14,22,11.20
2019,04,10,14,23,11.30
2019,04,10,14,24,11.30
2019,04,10,14,25,11.30
2019,04,10,14,26,11.50
2019,04,10,14,27,11.60
2019,04,10,14,28,11.60
2019,04,10,14,29,11.70
2019,04,10,14,30,11.70
2019,04,10,14,31,11.80
2019,04,10,14,32,11.80
2019,04,10,14,33,11.90
2019,04,10,14,34,12.00
2019,04,10,14,35,12.00
2019,04,10,14,36,12.10
2019,04,10,14,37,12.10
2019,04,10,14,38,12.10
2019,04,10,14,39,12.10
2019,04,10,14,40,12.10
2019,04,10,14,41,12.10
2019,04,10,14,42,12.00
2019,04,10,14,43,11.90
2019,04,10,14,44,11.90
2019,04,10,14,45,11.90
2019,04,10,14,46,11.90
2019,04,10,14,47,11.90
2019,04,10,14,48,11.90
2019,04,10,14,49,11.90
2019,04,10,14,50,11.90
2019,04,10,14,51,11.90
2019,04,10,14,52,11.80
2019,04,10,14,53,11.80
2019,04,10,14,54,11.80
2019,04,10,14,55,11.80
2019,04,10,14,56,11.80
2019,04,10,14,57,11.80
2019,04,10,14,58,11.80
2019,04,10,14,59,11.80
2019,04,10,15,00,11.80
2019,04,10,15,01,11.80
2019,04,10,15,02,11.80
2019,04,10,15,03,11.80
2019,04,10,15,04,11.80
2019,04,10,15,05,11.80
2019,04,10,15,06,11.90
2019,04,10,15,07,11.90
2019,04,10,15,08,12.00
2019,04,10,15,09,12.00
2019,04,10,15,10,12.10
2019,04,10,15,11,12.10
2019,04,10,15,12,12.20
2019,04,10,15,13,12.20
2019,04,10,15,14,12.20
2019,04,10,15,15,12.30
2019,04,10,15,16,12.20
2019,04,10,15,17,12.30
2019,04,10,15,18,12.30
2019,04,10,15,19,12.30
2019,04,10,15,20,12.30
2019,04,10,15,21,12.20
2019,04,10,15,22,12.20
2019,04,10,15,23,12.20
2019,04,10,15,24,12.20
2019,04,10,15,25,12.10
2019,04,10,15,26,12.20
2019,04,10,15,27,12.20
2019,04,10,15,28,12.30
2019,04,10,15,29,12.30
2019,04,10,15,30,12.40
2019,04,10,15,31,12.30
2019,04,10,15,32,12.30
2019,04,10,15,33,12.30
2019,04,10,15,34,12.30
2019,04,10,15,35,12.40
2019,04,10,15,36,12.40
2019,04,10,15,37,12.50
2019,04,10,15,38,12.50
2019,04,10,15,39,12.60
2019,04,10,15,40,12.60
2019,04,10,15,41,12.70
2019,04,10,15,42,12.70
2019,04,10,15,43,12.80
2019,04,10,15,44,12.80
2019,04,10,15,45,12.90
2019,04,10,15,46,12.90
2019,04,10,15,47,12.90
2019,04,10,15,48,12.90
2019,04,10,15,49,12.90
2019,04,10,15,50,12.90
2019,04,10,15,51,12.90
2019,04,10,15,52,12.90
2019,04,10,15,53,12.80
2019,04,10,15,54,12.80
2019,04,10,15,55,12.90
2019,04,10,15,56,12.80
2019,04,10,15,57,12.80
2019,04,10,15,58,12.80
2019,04,10,15,59,12.90
2019,04,10,16,00,13.00
2019,04,10,16,01,13.00
2019,04,10,16,02,13.10
2019,04,10,16,03,13.20
2019,04,10,16,04,13.20
2019,04,10,16,05,13.30
2019,04,10,16,06,13.40
2019,04,10,16,07,13.50
2019,04,10,16,08,13.60
2019,04,10,16,09,13.60
2019,04,10,16,10,13.70
2019,04,10,16,11,13.70
2019,04,10,16,12,13.70
2019,04,10,16,13,13.80
2019,04,10,16,14,13.80
2019,04,10,16,15,13.80
2019,04,10,16,16,13.80
2019,04,10,16,17,13.80
2019,04,10,16,18,13.80
2019,04,10,16,19,13.80
2019,04,10,16,20,13.80
2019,04,10,16,21,13.90
2019,04,10,16,22,14.00
2019,04,10,16,23,14.00
2019,04,10,16,24,14.00
2019,04,10,16,25,14.10
2019,04,10,16,26,14.10
2019,04,10,16,27,14.10
2019,04,10,16,28,14.10
2019,04,10,16,29,14.10
2019,04,10,16,30,14.10
2019,04,10,16,31,14.10
2019,04,10,16,32,14.10
2019,04,10,16,33,14.10
2019,04,10,16,34,14.10
2019,04,10,16,35,14.10
2019,04,10,16,36,14.10
2019,04,10,16,37,14.10
2019,04,10,16,38,14.00
2019,04,10,16,39,13.90
2019,04,10,16,40,13.90
2019,04,10,16,41,13.80
2019,04,10,16,42,13.80
2019,04,10,16,43,13.90
2019,04,10,16,44,13.90
2019,04,10,16,45,13.90
2019,04,10,16,46,13.90
2019,04,10,16,47,13.80
2019,04,10,16,48,13.70
2019,04,10,16,49,13.70
2019,04,10,16,50,13.60
2019,04,10,16,51,13.50
2019,04,10,16,52,13.50
2019,04,10,16,53,13.40
2019,04,10,16,54,13.30
2019,04,10,16,55,13.30
2019,04,10,16,56,13.20
2019,04,10,16,57,13.20
2019,04,10,16,58,13.20
2019,04,10,16,59,13.10
2019,04,10,17,00,13.10
2019,04,10,17,01,13.10
2019,04,10,17,02,13.00
2019,04,10,17,03,12.90
2019,04,10,17,04,12.90
2019,04,10,17,05,12.90
2019,04,10,17,06,12.90
2019,04,10,17,07,12.90
2019,04,10,17,08,12.90
2019,04,10,17,09,12.90
2019,04,10,17,10,12.90
2019,04,10,17,11,12.90
2019,04,10,17,12,12.80
2019,04,10,17,13,12.80
2019,04,10,17,14,12.70
2019,04,10,17,15,12.60
2019,04,10,17,16,12.50
2019,04,10,17,17,12.40
2019,04,10,17,18,12.30
2019,04,10,17,19,12.20
2019,04,10,17,20,12.20
2019,04,10,17,21,12.10
2019,04,10,17,22,12.00
2019,04,10,17,23,11.90
2019,04,10,17,24,11.80
2019,04,10,17,25,11.70
2019,04,10,17,26,11.60
2019,04,10,17,27,11.40
2019,04,10,17,28,11.30
2019,04,10,17,29,11.20
2019,04,10,17,30,11.10
2019,04,10,17,31,11.00
2019,04,10,17,32,10.90
2019,04,10,17,33,10.70
2019,04,10,17,34,10.60
2019,04,10,17,35,10.50
2019,04,10,17,36,10.50
2019,04,10,17,37,10.40
2019,04,10,17,38,10.40
2019,04,10,17,39,10.30
2019,04,10,17,40,10.30
2019,04,10,17,41,10.20
2019,04,10,17,42,10.20
2019,04,10,17,43,10.20
2019,04,10,17,44,10.20
2019,04,10,17,45,10.20
2019,04,10,17,46,10.10
2019,04,10,17,47,10.10
2019,04,10,17,48,10.10
2019,04,10,17,49,10.10
2019,04,10,17,50,10.10
2019,04,10,17,51,10.10
2019,04,10,17,52,10.10
2019,04,10,17,53,10.10
2019,04,10,17,54,10.10
2019,04,10,17,55,10.10
2019,04,10,17,56,10.10
2019,04,10,17,57,10.10
2019,04,10,17,58,10.10
2019,04,10,17,59,10.10
2019,04,10,18,00,10.10
2019,04,10,18,01,10.00
2019,04,10,18,02,10.00
2019,04,10,18,03,10.00
2019,04,10,18,04,10.00
2019,04,10,18,05,10.00
2019,04,10,18,06,10.00
2019,04,10,18,07,10.00
2019,04,10,18,08,10.00
2019,04,10,18,09,10.00
2019,04,10,18,10,10.00
2019,04,10,18,11,10.00
2019,04,10,18,12,10.10
2019,04,10,18,13,10.10
2019,04,10,18,14,10.10
2019,04,10,18,15,10.10
2019,04,10,18,16,10.10
2019,04,10,18,17,10.10
2019,04,10,18,18,10.10
2019,04,10,18,19,10.00
2019,04,10,18,20,10.00
2019,04,10,18,21,10.00
2019,04,10,18,22,10.00
2019,04,10,18,23,10.00
2019,04,10,18,24,10.00
2019,04,10,18,25,10.00
2019,04,10,18,26,10.00
2019,04,10,18,27,9.90
2019,04,10,18,28,9.90
2019,04,10,18,29,9.90
2019,04,10,18,30,9.90
2019,04,10,18,31,9.90
2019,04,10,18,32,9.90
2019,04,10,18,33,9.90
2019,04,10,18,34,9.90
2019,04,10,18,35,9.90
2019,04,10,18,36,9.90
2019,04,10,18,37,9.90
2019,04,10,18,38,9.80
2019,04,10,18,39,9.80
2019,04,10,18,40,9.80
2019,04,10,18,41,9.80
2019,04,10,18,42,9.80
2019,04,10,18,43,9.80
2019,04,10,18,44,9.70
2019,04,10,18,45,9.70
2019,04,10,18,46,9.70
2019,04,10,18,47,9.70
2019,04,10,18,48,9.70
2019,04,10,18,49,9.70
2019,04,10,18,50,9.70
2019,04,10,18,51,9.70
2019,04,10,18,52,9.70
2019,04,10,18,53,9.70
2019,04,10,18,54,9.70
2019,04,10,18,55,9.70
2019,04,10,18,56,9.70
2019,04,10,18,57,9.70
2019,04,10,18,58,9.70
